Regional Weather Roundup
Issued by NWS

Home | Current Version | Previous Version | Graphics & Text | Print | Product List | Glossary On
Versions: 1 2 3 4 5 6 7 8 9 10 11 12 13 14 15 16 17 18 19 20 21 22 23 24 25 26 27 28 29 30 31 32 33 34 35 36 37 38 39 40 41 42 43 44 45 46 47 48 49 50
000
ASUS43 KDMX 200506
RWRIA

WEATHER ROUNDUP FOR IOWA
NATIONAL WEATHER SERVICE DES MOINES IA
1200 AM CDT FRI OCT 20 2017

NOTE: "FAIR" INDICATES FEW OR NO CLOUDS BELOW 12,000 FEET WITH NO
SIGNIFICANT WEATHER AND/OR OBSTRUCTIONS TO VISIBILITY.

* - THESE STATIONS ARE NOT NWS STATIONS...THUS NOT UNDER NWS
QUALITY CONTROL.  THEY ALSO DO NOT REPORT WEATHER SUCH
AS PRECIPITATION OR FOG.

IAZ001>003-012>014-020>022-031>034-043>046-200600-
   NORTHWEST IOWA

CITY           SKY/WX    TMP DP  RH WIND       PRES   REMARKS
CARROLL *        N/A     75  70  83 S10       29.98S
CHEROKEE *       N/A     61  53  73 S14       29.94S
DENISON *        N/A     63  50  63 S12G20    29.98S
LE MARS *        N/A     59  52  77 S6        29.92S
ORANGE CITY *    N/A     57  54  88 S7        29.92S
SHELDON *        N/A     61  52  72 S10       29.90F
SIOUX CITY       N/A     56  52  86 SE8       29.92F
SPENCER          N/A     56  51  84 S9        29.94S
STORM LAKE *     N/A     57  50  77 S12       29.96S
$$

IAZ055>058-069>071-079>083-090>094-200600-
   SOUTHWEST IOWA

CITY           SKY/WX    TMP DP  RH WIND       PRES   REMARKS
ATLANTIC *       N/A     61  52  72 S8        30.00S
AUDUBON *        N/A     57  52  82 S6        30.01S
CLARINDA *       N/A     59  52  77 S8        30.05S
COUNCIL BLFS *   N/A     68  52  56 S16       29.98S
CRESTON *        N/A     59  52  77 S12       30.05S
HARLAN  *        N/A     59  52  77 S9        30.02S
LAMONI           N/A     61  52  72 S9        30.06S
RED OAK *        N/A     61  52  72 S8        30.01S
SHENANDOAH *     N/A     64  52  63 S13       30.02R
$$

IAZ047>049-059>061-072>074-084-200600-
   CENTRAL IOWA

CITY           SKY/WX    TMP DP  RH WIND       PRES   REMARKS
AMES             N/A     53  52  96 S5        30.01F
ANKENY *         N/A     57  52  82 S3        30.03F
BOONE *          N/A     57  52  82 S9        30.00F
CHARITON *       N/A     61  52  72 S8        30.05S
DES MOINES       N/A     60  52  74 S10       30.02S
KNOXVILLE *      N/A     61  50  67 S10       30.03S
MARSHALLTOWN     N/A     58  52  80 SE7       30.02F
NEWTON *         N/A     55  50  82 S7        30.04S
PELLA *          N/A     59  51  74 S6        30.06S
PERRY *          N/A     57  53  88 S8        30.01S
$$

IAZ004>006-015-016-023>025-035-036-200600-
   NORTH CENTRAL IOWA

CITY           SKY/WX    TMP DP  RH WIND       PRES   REMARKS
ALGONA *         N/A     59  54  82 S10G16    29.97S
CLARION *        N/A     59  55  88 S12       29.99S
ESTHERVILLE      N/A     53  51  93 S10       29.94S
FORT DODGE *     N/A     63  52  67 S14       29.98F
MASON CITY       N/A     48  45  89 SE8       30.01F
FOREST CITY *    N/A     52  50  93 SE6       29.99S
WEBSTER CITY *   N/A     59  52  77 S7        29.98S
IOWA FALLS *     N/A     56  52  86 SE8       30.02F
$$

IAZ007>011-017>019-026>030-037>042-050>054-066-200600-
   NORTHEAST IOWA

CITY           SKY/WX    TMP DP  RH WIND       PRES   REMARKS
CEDAR RAPIDS     N/A     57  50  77 SE7       30.06S
CHARLES CITY *   N/A     57  48  72 S7        30.02F
CLINTON *        N/A     57  50  77 SE8       30.11S
DECORAH *        N/A     55  43  62 S6        30.03S
DUBUQUE          N/A     55  48  77 SW7       30.09S
MONTICELLO *     N/A     54  48  82 CALM      30.07S
OELWEIN *        N/A     54  50  87 S8        30.05F
WATERLOO         N/A     56  50  80 SE6       30.03S
$$

IAZ064-065-067-068-078-200600-
   EAST CENTRAL IOWA

CITY           SKY/WX    TMP DP  RH WIND       PRES   REMARKS
DAVENPORT        N/A     60  51  72 S9        30.11F
IOWA CITY        N/A     53  49  86 CALM      30.09S
MUSCATINE *      N/A     50  48  93 CALM      30.09S
QUAD CITIES      N/A     57  49  74 S6        30.09F
$$

IAZ062-063-075>077-085>089-095>099-200600-
   SOUTHEAST IOWA

CITY           SKY/WX    TMP DP  RH WIND       PRES   REMARKS
BURLINGTON       N/A     60  52  74 S7        30.10S
FAIRFIELD *      N/A     61  50  67 S9        30.07S
FORT MADISON *   N/A     61  52  72 S7        30.11S
KEOKUK *         N/A     64  50  59 S6        30.09F
OSKALOOSA *      N/A     54  50  86 S9        30.06S
OTTUMWA          N/A     58  51  78 S9        30.06S
WASHINGTON *     N/A     61  52  72 S9        30.09S
$$

ABBREVIATIONS USED IN REMARKS
   TC - TEMPERATURES IN CELSIUS
  WCI - WIND CHILL INDEX
   HX - HEAT INDEX
  VSB - VISIBILITY
$$





USA.gov is the U.S. government's official web portal to all federal, state and local government web resources and services.